STARLINK-3272, 50187

Orbit data source: Space-Track

STARLINK-3272, 50187 is a payload satellite owned by SpaceX/Seattle (US) in LEO that was launched on Sat, 18 Dec 2021 UTC via an FALCON 9 launch vehicle from the Air Force Western Test Range (AFWTR). Payload-class satellites include a variety of spacecraft equipped with specific instruments for various scientific and technological missions. These include communications satellites like Starlink; space stations such as the ISS; scientific satellites like the Hubble; Earth observation satellites from companies like Planet Labs, Umbra, and HawkEye 360; GPS; miniature CubeSats for education and research; and military/defense satellites.

Loading next visibility...
Identifier
50187, 2021-125AH
Orbit
LEO
Country
Flag of USUS
Related business
Manufacturer
SpaceX/Seattle
Mission
Operational Commercial Communications
Bus & Motor
STARLINK, Unknown motor
Mass
290 kg wet, ~270 kg dry
Launch date (UTC)
2021-12-18 (5 years ago)
Launch vehicle
FALCON 9
Launch site
Air Force Western Test Range (AFWTR)
Object type
Payload
Rocket body
Debris
Shape & HBR
Box + 1 Pan, 10.1 m
Radar Cross Section
13.562 m², Large (>1 m²)

Expand to show TLE details & history
Last TLE update: 5 hours ago

TLE from 5 hours ago
0 STARLINK-3272
1 50187U 21125AH  26170.09859809  .00014209  00000-0  83709-3 0  9992
2 50187  53.2136 142.8683 0001556  41.6097 318.5015 15.11850452252047
Epoch: 2026-06-19T02:21Z
TLE epoch observation values (Epoch: 2026-06-19T02:21:58.874Z)
Latitude
-0.00002°
Longitude
-159.95947°
Altitude
530.65 km
Speed
7.599 km/s
True Right ascension
09h 31m 28s
True Declination
0° 00' 00"
Sunlit
Object was in daylight at epoch
Visualization orbit readout
Latitude
Unknown
Longitude
Unknown
Altitude
Unknown
Speed
Unknown
Apparent Right ascension
Unknown
Apparent Declination
Unknown
Sunlit
N/A
Visualization observer readout
Local Sidereal Time
18:35:00
Azimuth
Unknown
Elevation
Unknown
Doppler factor
Unknown
Orbital elements
Apogee altitude
531.878 km
Perigee altitude
529.728 km
Semi-major axis
6,908.94 km
Eccentricity
0.00016
Inclination
53.2136°
RAAN
142.8683°
Arg. of periapsis
41.6097°
True anomaly
318.48968°
Mean anomaly
318.5015°
Eccentric anomaly
318.49559°
Mean motion
3.77943 °/min
Orbital period
95.25 mins
BSTAR
0.00083709
Loading maneuver chart data...
Computing Atmospheric mass density...
Loading historical data...
Loading historical data...
Loading historical data...
Loading historical data...
Loading historical data...
Loading historical data...
Loading historical data...

Documentation

Showing up to 5 results
|